www.pogodaiklimat.ru

Погода и климат >> Архив погоды >> Бразилия >> Рио-де-Жанейро >> Арраял-ду-Кабу


ПОГОДА в Арраял-ду-Кабу

  • Прогноз погоды в Арраял-ду-Кабу
  • Монитор погоды в Арраял-ду-Кабу

АРХИВ ПОГОДЫ в Арраял-ду-Кабу

Время (UTC), дата Ветер
(напр.,м/с)
 
Видим.   Явления Облачность Т
(С)
Тd
(С)
f
(%)
Тe
(С)
Тes
(С)
Комфортность P
(гПа)
Po
(гПа)
Тmin
(С)
Tmax
(С)
R
(мм)
R24
(мм)
S
(см)
16 17.08 СВ 5
{8}
н/о н/о +23.7 +15.6 60 +27 +27 жарко 1020.4 1020.0
17 17.08 В 6
{9}
н/о н/о +23.3 +15.6 62 +28 +28 душно 1019.0 1018.6
18 17.08 В 7
{9}
н/о н/о +22.9 +15.4 63 +27 +27 душно 1018.0 1017.6
19 17.08 В 6
{9}
н/о н/о +22.5 +15.6 65 +26 +26 жарко 1017.7 1017.3
20 17.08 В 6
{10}
н/о н/о +21.6 +15.7 69 +25 +25 комфорт 1017.8 1017.4
21 17.08 В 6
{10}
н/о н/о +21.2 +16.2 73 +25 +25 комфорт 1017.8 1017.4
22 17.08 СВ 6
{9}
н/о н/о +21.0 +16.2 74 +24 +24 комфорт 1018.5 1018.1
23 17.08 СВ 6
{10}
н/о н/о +21.1 +16.2 74 +24 +24 комфорт 1018.8 1018.4
00 18.08 СВ 6
{10}
н/о н/о +20.9 +16.7 77 +24 +24 комфорт 1018.9 1018.5
01 18.08 СВ 6
{10}
н/о н/о +20.8 +16.7 77 +24 +24 комфорт 1018.8 1018.4
02 18.08 СВ 4
{10}
н/о н/о +20.9 +16.8 77 +25 +25 комфорт 1018.7 1018.3
03 18.08 СВ 4
{8}
н/о н/о +20.8 +16.9 78 +25 +25 комфорт 1018.5 1018.1
04 18.08 СВ 5
{8}
н/о н/о +20.7 +16.8 78 +24 +24 комфорт 1017.9 1017.5
05 18.08 СВ 5
{9}
н/о н/о +20.7 +16.2 75 +24 +24 комфорт 1017.1 1016.7
06 18.08 СВ 4
{9}
н/о н/о +20.5 +16.1 76 +24 +24 комфорт 1016.8 1016.4
07 18.08 СВ 3
{7}
н/о н/о +20.3 +15.8 75 +23 +23 комфорт 1016.4 1016.0
08 18.08 СВ 3
{4}
н/о н/о +20.2 +16.1 77 +23 +23 комфорт 1016.2 1015.8
09 18.08 СВ 3
{4}
н/о н/о +20.2 +16.2 78 +23 +23 комфорт 1016.1 1015.7
10 18.08 В 2
{4}
н/о н/о +20.9 +16.9 78 +25 +25 комфорт 1016.5 1016.1
11 18.08 В 2
{3}
н/о н/о +22.1 +17.2 74 +27 +27 душно 1016.9 1016.5
13 18.08 В 2
{4}
н/о н/о +24.6 +18.1 67 +29 +29 душно 1016.8 1016.4
14 18.08 В 3
{3}
н/о н/о +24.9 +18.1 66 +29 +29 душно 1016.0 1015.6
15 18.08 В 2
{3}
н/о н/о +25.4 +18.6 66 +30 +30 душно 1015.1 1014.7
16 18.08 В 3
{3}
н/о н/о +25.9 +18.6 64 +31 +31 очень
душно
1014.3 1013.9
17 18.08 В 2
{3}
н/о н/о +24.9 +18.3 67 +29 +29 душно 1013.5 1013.1
18 18.08 В 2
{3}
н/о н/о +24.9 +18.1 66 +29 +29 душно 1013.1 1012.7
19 18.08 В 2
{3}
н/о н/о +24.1 +18.0 69 +28 +28 душно 1013.2 1012.8
20 18.08 В 2
{3}
н/о н/о +22.8 +18.6 77 +29 +29 очень
душно
1013.1 1012.7
21 18.08 В 2
{3}
н/о н/о +22.2 +19.4 84 +28 +28 душно 1013.6 1013.2
22 18.08 В 2
{3}
н/о н/о +22.0 +20.0 88 +28 +28 душно 1014.0 1013.6
23 18.08 В 2
{3}
н/о н/о +22.0 +20.0 88 +28 +28 душно 1014.2 1013.8
00 19.08 В 3
{4}
н/о н/о +22.1 +20.3 90 +28 +28 душно 1014.4 1014.0
01 19.08 В 2
{3}
н/о н/о +21.8 +19.9 89 +27 +27 душно 1014.8 1014.4
03 19.08 В 1
{2}
н/о н/о +21.5 +19.6 89 +27 +27 душно 1014.6 1014.2
04 19.08 В 1
{2}
н/о н/о +21.3 +19.3 88 +26 +26 душно 1014.1 1013.7
05 19.08 штиль 0
{2}
н/о н/о +20.2 +18.1 88 +23 +23 комфорт 1014.0 1013.6
06 19.08 З 1
{1}
н/о н/о +19.6 +17.1 85 +23 +23 комфорт 1013.9 1013.5
07 19.08 З 2
{3}
н/о н/о +21.3 +17.8 80 +25 +25 комфорт 1014.6 1014.2
08 19.08 З 2
{5}
н/о н/о +22.0 +20.7 92 +28 +28 душно 1015.0 1014.6
09 19.08 З 3
{5}
н/о н/о +22.0 +21.0 94 +28 +28 душно 1015.8 1015.4
10 19.08 З 4
{6}
н/о н/о +21.9 +21.1 95 +28 +28 душно 1016.5 1016.1
11 19.08 З 4
{6}
н/о н/о +22.5 +21.0 91 +29 +29 очень
душно
1017.4 1017.0
12 19.08 З 3
{6}
н/о н/о +23.2 +21.1 88 +31 +31 очень
душно
1018.1 1017.7
13 19.08 З 3
{6}
н/о н/о +23.5 +21.1 86 +30 +30 очень
душно
1018.1 1017.7
14 19.08 З 3
{5}
н/о н/о +24.1 +21.4 85 +31 +31 очень
душно
1018.3 1017.9
15 19.08 З 3
{5}
н/о н/о +24.1 +21.1 83 +30 +30 очень
душно
1018.0 1017.6
16 19.08 З 3
{6}
н/о н/о +23.5 +21.2 87 +30 +30 очень
душно
1017.6 1017.2
17 19.08 З 2
{6}
н/о н/о +23.1 +21.1 89 +31 +31 очень
душно
1017.1 1016.7
18 19.08 С 2
{5}
н/о н/о +23.6 +20.9 85 +30 +30 очень
душно
1017.3 1016.9
20 19.08 ЮВ 3
{6}
н/о н/о +22.1 +20.6 91 +28 +28 душно 1018.2 1017.8
21 19.08 ЮВ 2
{5}
н/о н/о +22.0 +20.3 90 +28 +28 душно 1018.6 1018.2
22 19.08 Ю 2
{4}
н/о н/о +21.8 +20.0 90 +27 +27 душно 1019.0 1018.6
23 19.08 ЮВ 2
{5}
н/о н/о +21.7 +19.6 88 +27 +27 душно 1019.5 1019.1
00 20.08 В 3
{6}
н/о н/о +21.6 +19.7 89 +27 +27 душно 1019.7 1019.3
01 20.08 ЮВ 2
{5}
н/о н/о +21.6 +19.4 87 +27 +27 душно 1020.4 1020.0
02 20.08 ЮВ 3
{5}
н/о н/о +21.2 +19.0 87 +26 +26 душно 1020.7 1020.3
03 20.08 В 3
{5}
н/о н/о +21.2 +18.9 87 +26 +26 душно 1020.2 1019.8
04 20.08 ЮВ 3
{5}
н/о н/о +21.0 +18.8 87 +26 +26 душно 1019.8 1019.4
05 20.08 ЮВ 3
{5}
н/о н/о +21.0 +18.7 87 +26 +26 душно 1019.5 1019.1
06 20.08 В 3
{5}
н/о н/о +21.0 +19.1 89 +26 +26 душно 1019.2 1018.8
08 20.08 ЮВ 3
{4}
н/о н/о +21.1 +19.5 91 +26 +26 душно 1019.5 1019.1
09 20.08 В 4
{4}
н/о н/о +20.8 +20.1 96 +26 +26 душно 1019.3 1018.9 1
10 20.08 В 3
{4}
н/о н/о +20.8 +20.2 96 +26 +26 душно 1020.3 1019.9 0.2
11 20.08 В 3
{4}
н/о н/о +21.2 +20.5 96 +26 +26 душно 1020.9 1020.5
13 20.08 В 3
{4}
н/о н/о +21.8 +21.0 95 +28 +28 душно 1021.3 1020.9
14 20.08 В 3
{4}
н/о н/о +22.0 +20.8 93 +28 +28 душно 1021.1 1020.7
15 20.08 В 3
{3}
н/о н/о +23.3 +21.3 89 +31 +31 очень
душно
1020.4 1020.0
16 20.08 В 2
{3}
н/о н/о +22.7 +20.5 87 +29 +29 очень
душно
1019.9 1019.5
17 20.08 В 2
{3}
н/о н/о +22.1 +20.3 90 +28 +28 душно 1019.5 1019.1
18 20.08 В 2
{2}
н/о н/о +22.1 +20.5 91 +28 +28 душно 1019.2 1018.8
19 20.08 ЮВ 1
{2}
н/о н/о +21.7 +20.4 92 +27 +27 душно 1019.7 1019.3
20 20.08 ЮВ 2
{3}
н/о н/о +21.5 +20.3 93 +27 +27 душно 1019.7 1019.3
21 20.08 Ю 1
{3}
н/о н/о +21.6 +20.5 93 +27 +27 душно 1020.5 1020.1
01 21.08 Ю 4
{9}
н/о н/о +19.3 +17.8 91 +21 +21 комфорт 1022.7 1022.3 0.4
02 21.08 Ю 4
{8}
н/о н/о +19.6 +16.8 84 +22 +22 комфорт 1023.3 1022.9
03 21.08 Ю 4
{7}
н/о н/о +19.5 +17.0 85 +22 +22 комфорт 1023.2 1022.8
04 21.08 Ю 3
{6}
н/о н/о +19.4 +16.1 81 +21 +21 комфорт 1022.7 1022.3
05 21.08 Ю 2
{5}
н/о н/о +19.7 +16.6 82 +23 +23 комфорт 1022.2 1021.8
06 21.08 Ю 2
{4}
н/о н/о +19.5 +16.9 85 +22 +22 комфорт 1022.0 1021.6
07 21.08 ЮВ 2
{4}
н/о н/о +19.5 +16.3 82 +22 +22 комфорт 1022.1 1021.7
08 21.08 В 2
{4}
н/о н/о +19.6 +16.1 80 +22 +22 комфорт 1022.3 1021.9
10 21.08 В 2
{5}
н/о н/о +19.4 +15.3 77 +22 +22 комфорт 1023.4 1023.0
11 21.08 ЮВ 2
{5}
н/о н/о +19.7 +15.0 74 +22 +22 комфорт 1023.8 1023.4
12 21.08 В 2
{4}
н/о н/о +20.9 +16.1 74 +25 +25 комфорт 1023.8 1023.4
13 21.08 В 2
{3}
н/о н/о +21.8 +15.0 65 +25 +25 комфорт 1024.2 1023.8
14 21.08 ЮВ 1
{3}
н/о н/о +21.0 +14.0 64 +25 +25 комфорт 1024.1 1023.7
15 21.08 Ю 1
{3}
н/о н/о +21.4 +14.2 64 +24 +24 комфорт 1023.6 1023.2
16 21.08 Ю 1
{3}
н/о н/о +21.5 +13.7 61 +24 +24 комфорт 1022.6 1022.2
17 21.08 ЮВ 1
{3}
н/о н/о +22.0 +14.5 62 +25 +25 комфорт 1021.7 1021.3
18 21.08 ЮВ 2
{3}
н/о н/о +22.1 +14.6 62 +25 +25 комфорт 1021.6 1021.2
19 21.08 ЮВ 2
{3}
н/о н/о +21.3 +13.6 61 +24 +24 комфорт 1021.8 1021.4
20 21.08 ЮВ 1
{3}
н/о н/о +20.6 +14.2 67 +24 +24 комфорт 1022.1 1021.7
21 21.08 ЮВ 1
{2}
н/о н/о +20.2 +14.2 68 +24 +24 комфорт 1022.3 1021.9
22 21.08 ЮВ 1
{2}
н/о н/о +20.2 +14.0 68 +24 +24 комфорт 1022.7 1022.3
23 21.08 ЮВ 1
{2}
н/о н/о +20.2 +14.2 68 +24 +24 комфорт 1023.3 1022.9
00 22.08 ЮВ 1
{1}
н/о н/о +20.1 +14.1 68 +24 +24 комфорт 1023.4 1023.0
01 22.08 Ю 1
{1}
н/о н/о +19.8 +14.0 69 +23 +23 комфорт 1023.4 1023.0
03 22.08 штиль 0
{1}
н/о н/о +18.8 +13.6 72 +20 +20 1022.9 1022.5
04 22.08 ЮЗ 1
{1}
н/о н/о +18.1 +13.8 76 +20 +20 1022.5 1022.1
05 22.08 штиль 0
{1}
н/о н/о +18.1 +13.9 76 +18 +18 1022.2 1021.8
06 22.08 штиль 0
{1}
н/о н/о +18.8 +14.9 78 +20 +20 1021.8 1021.4
08 22.08 ЮЗ 1
{2}
н/о н/о +19.5 +14.5 73 +23 +23 комфорт 1022.0 1021.6
10 22.08 ЮЗ 2
{3}
н/о н/о +20.2 +14.2 68 +23 +23 комфорт 1023.4 1023.0
11 22.08 З 2
{4}
н/о н/о +20.7 +14.4 67 +24 +24 комфорт 1024.2 1023.8
12 22.08 З 3
{5}
н/о н/о +21.8 +14.3 62 +25 +25 комфорт 1025.0 1024.6
13 22.08 З 2
{5}
н/о н/о +22.7 +13.2 55 +26 +26 жарко 1025.3 1024.9
14 22.08 В 2
{6}
н/о н/о +21.0 +15.9 73 +25 +25 комфорт 1025.2 1024.8
15 22.08 ЮВ 3
{8}
н/о н/о +19.4 +14.7 74 +21 +21 комфорт 1024.7 1024.3
16 22.08 В 2
{7}
н/о н/о +19.7 +15.4 76 +23 +23 комфорт 1024.0 1023.6
17 22.08 Ю 3
{7}
н/о н/о +19.5 +14.6 73 +22 +22 комфорт 1023.5 1023.1
18 22.08 ЮВ 3
{5}
н/о н/о +20.1 +13.9 67 +23 +23 комфорт 1023.6 1023.2
19 22.08 ЮВ 3
{6}
н/о н/о +19.7 +13.8 69 +22 +22 комфорт 1023.9 1023.5
20 22.08 ЮВ 2
{5}
н/о н/о +20.0 +12.9 64 +22 +22 комфорт 1024.0 1023.6
21 22.08 ЮВ 2
{5}
н/о н/о +20.1 +12.4 61 +23 +23 комфорт 1024.2 1023.8
22 22.08 ЮВ 2
{5}
н/о н/о +20.0 +12.0 60 +22 +22 комфорт 1024.4 1024.0
23 22.08 В 2
{4}
н/о н/о +19.9 +12.2 61 +22 +22 комфорт 1024.8 1024.4
01 23.08 ЮВ 2
{4}
н/о н/о +19.9 +11.7 59 +22 +22 комфорт 1025.3 1024.9
02 23.08 ЮВ 2
{3}
н/о н/о +19.8 +11.8 60 +22 +22 комфорт 1025.5 1025.1
03 23.08 ЮВ 2
{3}
н/о н/о +19.7 +11.7 60 +22 +22 комфорт 1025.4 1025.0
04 23.08 В 2
{3}
н/о н/о +19.7 +11.7 60 +22 +22 комфорт 1024.8 1024.4
05 23.08 В 3
{3}
н/о н/о +19.7 +12.7 64 +22 +22 комфорт 1023.7 1023.3
06 23.08 В 3
{3}
н/о н/о +19.6 +12.8 65 +22 +22 комфорт 1022.7 1022.3
07 23.08 В 3
{4}
н/о н/о +19.5 +12.5 64 +21 +21 комфорт 1022.0 1021.6
08 23.08 В 4
{5}
н/о н/о +19.6 +13.3 67 +21 +21 комфорт 1021.9 1021.5
09 23.08 В 3
{5}
н/о н/о +19.7 +13.0 65 +22 +22 комфорт 1022.0 1021.6
10 23.08 В 4
{5}
н/о н/о +19.9 +13.1 65 +22 +22 комфорт 1022.0 1021.6
11 23.08 В 4
{5}
н/о н/о +20.7 +13.4 63 +23 +23 комфорт 1022.4 1022.0
12 23.08 В 4
{5}
н/о н/о +20.8 +13.6 63 +24 +24 комфорт 1023.1 1022.7
13 23.08 В 4
{5}
н/о н/о +20.6 +14.1 66 +23 +23 комфорт 1023.3 1022.9
14 23.08 В 3
{5}
н/о н/о +19.9 +13.8 68 +22 +22 комфорт 1023.0 1022.6
15 23.08 В 3
{5}
н/о н/о +20.5 +14.9 70 +24 +24 комфорт 1022.2 1021.8
16 23.08 В 4
{5}
н/о н/о +21.0 +14.1 65 +24 +24 комфорт 1021.2 1020.8
17 23.08 В 4
{6}
н/о н/о +20.7 +14.1 66 +23 +23 комфорт 1020.3 1019.9
18 23.08 В 4
{6}
н/о н/о +20.5 +13.7 65 +23 +23 комфорт 1020.0 1019.6
19 23.08 СВ 4
{6}
н/о н/о +20.3 +14.1 68 +23 +23 комфорт 1019.8 1019.4
01 24.08 СВ 3
{5}
н/о н/о +19.2 +17.2 88 +21 +21 комфорт 1022.1 1021.7
02 24.08 СВ 3
{4}
н/о н/о +18.9 +17.5 92 +21 +21 комфорт 1022.4 1022.0
03 24.08 СВ 2
{4}
н/о н/о +18.7 +18.0 96 +20 +20 1022.2 1021.8 0.8
04 24.08 В 3
{4}
н/о н/о +18.4 +18.0 98 +19 +19 1022.0 1021.6 0.2
05 24.08 В 4
{5}
н/о н/о +18.0 +17.6 98 +18 +18 1021.7 1021.3 0.4
06 24.08 В 3
{4}
н/о н/о +17.8 +17.7 99 +18 +18 1021.6 1021.2 3
07 24.08 В 3
{4}
н/о н/о +18.3 +18.1 99 +19 +19 1021.2 1020.8 1
08 24.08 СВ 2
{3}
н/о н/о +17.9 +17.7 99 +18 +18 1021.5 1021.1 0.2
09 24.08 СВ 2
{3}
н/о н/о +18.0 +18.0 100 +19 +19 1022.1 1021.7 1
10 24.08 СВ 1
{3}
н/о н/о +18.2 +17.9 98 +20 +20 1022.7 1022.3 0.2
11 24.08 С 2
{3}
н/о н/о +19.0 +18.0 94 +21 +21 комфорт 1023.0 1022.6
12 24.08
{3}
н/о н/о +20.2 +18.1 88 1023.6 1023.2
13 24.08 С 1
{3}
н/о н/о +22.2 +17.2 73 +27 +27 душно 1024.0 1023.6
14 24.08 В 2
{3}
н/о н/о +21.2 +18.2 83 +25 +25 комфорт 1024.0 1023.6

 

Местоположение метеостанции Арраял-ду-Кабу (Рио-де-Жанейро, Бразилия): широта -22.98 долгота -42.02 высота над уровнем моря 6 м.

В архиве по умолчанию представлена погода в Арраял-ду-Кабу за последнюю неделю. Архивные данные за месяц целиком и за предыдущие месяцы, начиная с января 2011 года, Вы можете получить, выбрав интересующий диапазон дат из раскрывающегося списка и нажав кнопку "Ввод!".


*Определитесь, кто Вы:
робот инопланетянин человек

Внимание! Время в таблицах - всемирное. Для получения местного времени необходимо прибавить поправку, которая равна -3 ч.

Смотрите также архив погоды в соседних городах и на ближайших метеорологических станциях:

Погода в Силва-Жардине (Рио-де-Жанейро, Бразилия) (55 км)
Погода в Сакуареме (Рио-де-Жанейро, Бразилия) (62 км)
Погода в Макаэ (Рио-де-Жанейро, Бразилия) (70 км)
Погода в Нова-Фрибургу (Рио-де-Жанейро, Бразилия) (99 км)
Погода в Кордейру (Рио-де-Жанейро, Бразилия) (111 км)
Погода в Терезополисе (Рио-де-Жанейро, Бразилия) (116 км)
Погода на Маяке Ilha Rasa (Рио-де-Жанейро, Бразилия) (116 км)
Погода в Рио-де-Жанейро аэропорту (Рио-де-Жанейро, Бразилия) (117 км)
Погода в Рио-де-Жанейро (Рио-де-Жанейро, Бразилия) (118 км)
Погода в Рио-де-Жанейро - Форте-де-Копакабана (Рио-де-Жанейро, Бразилия) (120 км)

Пояснения к столбцам:

Ветер - указаны скорость ветра в м/с - средняя за 10 мин, порывы в срок и между сроками (в фигурных скобках) и направление, откуда дует ветер: С - северный, СВ - северо-восточный, В - восточный, ЮВ - юго-восточный, Ю - южный, ЮЗ - юго-западный, З - западный, СЗ - северо-западный.
Видимость - горизонтальная дальность видимости в метрах или километрах. При видимости от 1 до 10 км при отсутствии осадков обычно наблюдается дымка, при ухудшении видимости до 1 км и менее - туман. В сухую погоду видимость может ухудшаться дымом, пылью или мглою.
Явления - указаны атмосферные явления, наблюдавшиеся в срок или в последний час перед сроком; фигурными скобками обозначены явления, наблюдавшиеся между сроками (за 1-3 часа до срока); квадратными скобками обозначены град или гололедные отложения с указанием их диаметра в мм.
Облачность - указаны через наклонную черту общая и нижняя облачность в баллах и высота нижней границы облаков в метрах; квадратными скобками обозначены формы облаков: Ci - перистые, Cs - перисто-слоистые, Cc - перисто-кучевые, Ac - высококучевые, As - высокослоистые, Sc - слоисто-кучевые, Ns - слоисто-дождевые, Cu - кучевые, Cb - кучево-дождевые. Подробнее классификацию облаков см. в Атласе облаков (PDF).
T - Температура воздуха - температура, измеренная на высоте 2 м над землей.
Td - Температура точки росы - температура, при понижении до которой содержащийся в воздухе водяной пар достигнет насыщения.
f - Относительная влажность воздуха - влажноcть воздуха, измеренная на высоте 2 м над землей.
Te - Эффективная температура - температура, которую ощущает одетый по сезону человек в тени. Характеристика душности погоды. При расчете учитывается влияние влажности воздуха и скорости ветра на теплоощущения человека.
Tes - Эффективная температура на солнце - температура, которую ощущает человек, с поправкой на солнечный нагрев. Характеристика знойности погоды. Зависит от высоты солнца над горизонтом, облачности и скорости ветра. Ночью, в пасмурную погоду, а также при ветре 12 м/с и более поправка равна нулю.
P - Атмосферное давление - приведенное к уровню моря атмосферное давление.
Po - Атмосферное давление - измеренное на уровне метеостанции атмосферное давление.
Tmin - Минимальная температура - минимум температуры воздуха на высоте 2 м над землей.
Tmax - Максимальная температура - максимум температуры воздуха на высоте 2 м над землей.
R - Количество осадков - Количество выпавших осадков за период времени, мм. При наведении курсора мыши на число - период времени, за который выпало указанное количество осадков.
R24 - Количество осадков - Количество выпавших осадков за 24 часа, мм.
S - Снежный покров - Высота снежного покрова, см. При наведении курсора мыши на число - состояние снежного покрова и степень покрытия местности в баллах.